When you browse on this site, cookies collect data to enhance your experience and personalize the content and advertising you see.
Visit our Privacy Policy to learn more. By continuing to use the site, you agree to this use of cookies and data.
  • In Austria
  • List of Countries
  • For 7 days
  • Water Temperature
  • Weather Map
  • News
  • Weather Widgets
  • user-avatar
    Login

    Hourly Weather Mokrovo

    Today, 15 December, Sunday

    Time Temperature Precipitation Wind Pressure Humidity
    00:00 +2°C° 0.5 mm 5 mps 739 mmHg 90%
    01:00 +3°C° 0.5 mm 4 mps 739 mmHg 92%
    02:00 +3°C° 0 mm 4 mps 739 mmHg 92%
    03:00 +3°C° 0.2 mm 4 mps 739 mmHg 90%
    04:00 +2°C° 0.2 mm 5 mps 739 mmHg 88%
    05:00 +3°C° 0.2 mm 5 mps 739 mmHg 86%
    06:00 +2°C° 0 mm 5 mps 740 mmHg 85%
    07:00 +2°C° 0 mm 5 mps 740 mmHg 84%
    08:00 +1°C° 0 mm 5 mps 741 mmHg 84%
    09:00 +1°C° 0 mm 5 mps 741 mmHg 83%
    10:00 +2°C° 0 mm 5 mps 742 mmHg 81%
    11:00 +2°C° 0 mm 5 mps 742 mmHg 80%
    12:00 +2°C° 0 mm 5 mps 743 mmHg 82%
    13:00 +3°C° 0 mm 4 mps 743 mmHg 84%
    14:00 +3°C° 0 mm 4 mps 743 mmHg 87%
    15:00 +3°C° 0 mm 4 mps 744 mmHg 86%
    16:00 +3°C° 0 mm 4 mps 744 mmHg 85%
    17:00 +3°C° 0 mm 3 mps 744 mmHg 84%
    18:00 +3°C° 0 mm 3 mps 744 mmHg 85%
    19:00 +1°C° 0 mm 4 mps 744 mmHg 85%
    20:00 +1°C° 0 mm 4 mps 745 mmHg 86%
    21:00 +1°C° 0.1 mm 4 mps 745 mmHg 86%
    22:00 +3°C° 0.1 mm 4 mps 745 mmHg 86%
    23:00 +2°C° 0.1 mm 5 mps 745 mmHg 86%

    Tomorrow, 16 December, Monday

    Time Temperature Precipitation Wind Pressure Humidity
    00:00 +3°C° 0 mm 5 mps 745 mmHg 84%
    01:00 +4°C° 0 mm 4 mps 745 mmHg 83%
    02:00 +4°C° 0 mm 4 mps 745 mmHg 81%
    03:00 +4°C° 0 mm 4 mps 746 mmHg 84%
    04:00 +4°C° 0 mm 4 mps 746 mmHg 87%
    05:00 +4°C° 0 mm 4 mps 746 mmHg 91%
    06:00 +3°C° 0 mm 4 mps 747 mmHg 91%
    07:00 +3°C° 0 mm 4 mps 747 mmHg 91%
    08:00 +3°C° 0 mm 4 mps 747 mmHg 91%
    09:00 +4°C° 0 mm 4 mps 748 mmHg 87%
    10:00 +3°C° 0 mm 5 mps 749 mmHg 83%
    11:00 +5°C° 0 mm 5 mps 749 mmHg 80%
    12:00 +5°C° 0 mm 5 mps 749 mmHg 77%
    13:00 +5°C° 0 mm 4 mps 749 mmHg 74%
    14:00 +6°C° 0 mm 4 mps 749 mmHg 71%
    15:00 +5°C° 0 mm 4 mps 750 mmHg 76%
    16:00 +4°C° 0 mm 3 mps 751 mmHg 81%
    17:00 +3°C° 0 mm 3 mps 751 mmHg 87%
    18:00 +3°C° 0 mm 3 mps 751 mmHg 88%
    19:00 +3°C° 0 mm 2 mps 751 mmHg 90%
    20:00 +3°C° 0 mm 2 mps 751 mmHg 91%
    21:00 +3°C° 0 mm 2 mps 751 mmHg 91%
    22:00 +3°C° 0 mm 2 mps 751 mmHg 91%
    23:00 +4°C° 0 mm 2 mps 751 mmHg 92%

    Day after tomorrow, 17 December, Tuesday

    Time Temperature Precipitation Wind Pressure Humidity
    00:00 +4°C° 0 mm 2 mps 751 mmHg 91%
    01:00 +4°C° 0 mm 2 mps 751 mmHg 91%
    02:00 +3°C° 0 mm 3 mps 751 mmHg 90%
    03:00 +3°C° 0 mm 3 mps 750 mmHg 91%
    04:00 +3°C° 0 mm 3 mps 750 mmHg 91%
    05:00 +3°C° 0 mm 3 mps 750 mmHg 92%
    06:00 +3°C° 0 mm 3 mps 750 mmHg 91%
    07:00 +3°C° 0 mm 3 mps 750 mmHg 91%
    08:00 +3°C° 0 mm 3 mps 749 mmHg 90%
    09:00 +4°C° 0 mm 3 mps 749 mmHg 87%
    10:00 +5°C° 0 mm 3 mps 750 mmHg 84%
    11:00 +5°C° 0 mm 4 mps 750 mmHg 80%
    12:00 +7°C° 0 mm 3 mps 749 mmHg 79%
    13:00 +7°C° 0 mm 3 mps 749 mmHg 78%
    14:00 +8°C° 0 mm 3 mps 749 mmHg 77%
    15:00 +7°C° 0 mm 2 mps 749 mmHg 80%
    16:00 +6°C° 0 mm 2 mps 749 mmHg 84%
    17:00 +5°C° 0 mm 2 mps 749 mmHg 87%
    18:00 +5°C° 0 mm 2 mps 749 mmHg 88%
    19:00 +5°C° 0 mm 2 mps 749 mmHg 89%
    20:00 +5°C° 0 mm 2 mps 749 mmHg 90%
    21:00 +5°C° 0 mm 2 mps 749 mmHg 90%
    22:00 +5°C° 0 mm 2 mps 749 mmHg 90%
    23:00 +5°C° 0 mm 2 mps 749 mmHg 90%

    18 December, Wednesday

    Time Temperature Precipitation Wind Pressure Humidity
    00:00 +5°C° 0 mm 2 mps 749 mmHg 90%
    01:00 +5°C° 0 mm 2 mps 749 mmHg 90%
    02:00 +5°C° 0 mm 2 mps 749 mmHg 90%
    03:00 +5°C° 0 mm 2 mps 749 mmHg 89%
    04:00 +5°C° 0 mm 2 mps 749 mmHg 89%
    05:00 +4°C° 0 mm 2 mps 749 mmHg 89%
    06:00 +4°C° 0 mm 2 mps 748 mmHg 89%
    07:00 +4°C° 0 mm 2 mps 748 mmHg 90%
    08:00 +4°C° 0 mm 2 mps 748 mmHg 90%
    09:00 +4°C° 0 mm 2 mps 748 mmHg 89%
    10:00 +5°C° 0 mm 2 mps 749 mmHg 88%
    11:00 +4°C° 0 mm 3 mps 749 mmHg 88%
    12:00 +5°C° 0 mm 3 mps 749 mmHg 87%
    13:00 +6°C° 0 mm 2 mps 749 mmHg 86%
    14:00 +6°C° 0 mm 2 mps 748 mmHg 85%
    15:00 +6°C° 0 mm 2 mps 748 mmHg 87%
    16:00 +5°C° 0 mm 2 mps 748 mmHg 89%
    17:00 +5°C° 0 mm 2 mps 748 mmHg 91%
    18:00 +5°C° 0 mm 2 mps 748 mmHg 90%
    19:00 +5°C° 0 mm 2 mps 748 mmHg 90%
    20:00 +5°C° 0 mm 2 mps 748 mmHg 90%
    21:00 +5°C° 0 mm 2 mps 748 mmHg 90%
    22:00 +5°C° 0 mm 2 mps 748 mmHg 90%
    23:00 +4°C° 0 mm 3 mps 749 mmHg 90%

    19 December, Thursday

    Time Temperature Precipitation Wind Pressure Humidity
    00:00 +3°C° 0 mm 3 mps 748 mmHg 91%
    01:00 +3°C° 0 mm 3 mps 748 mmHg 91%
    02:00 +3°C° 0 mm 3 mps 748 mmHg 91%
    03:00 +3°C° 0 mm 3 mps 748 mmHg 92%
    04:00 +3°C° 0 mm 3 mps 748 mmHg 92%
    05:00 +3°C° 0 mm 3 mps 748 mmHg 92%
    06:00 +3°C° 0 mm 3 mps 748 mmHg 92%
    07:00 +3°C° 0 mm 3 mps 747 mmHg 92%
    08:00 +3°C° 0 mm 3 mps 747 mmHg 92%
    09:00 +4°C° 0 mm 3 mps 747 mmHg 90%
    10:00 +4°C° 0 mm 3 mps 747 mmHg 88%
    11:00 +5°C° 0 mm 3 mps 748 mmHg 85%
    12:00 +7°C° 0 mm 3 mps 747 mmHg 84%
    13:00 +7°C° 0 mm 3 mps 747 mmHg 83%
    14:00 +7°C° 0 mm 2 mps 746 mmHg 82%
    15:00 +7°C° 0 mm 2 mps 746 mmHg 83%
    16:00 +7°C° 0 mm 2 mps 746 mmHg 85%
    17:00 +7°C° 0 mm 2 mps 746 mmHg 87%
    18:00 +6°C° 0 mm 2 mps 746 mmHg 87%
    19:00 +7°C° 0 mm 1 mps 746 mmHg 88%
    20:00 +7°C° 0 mm 1 mps 746 mmHg 89%
    21:00 +7°C° 0 mm 1 mps 746 mmHg 89%
    22:00 +7°C° 0 mm 1 mps 746 mmHg 89%
    23:00 +7°C° 0 mm 1 mps 746 mmHg 90%

    20 December, Friday

    Time Temperature Precipitation Wind Pressure Humidity
    00:00 +6°C° 0 mm 1 mps 746 mmHg 91%
    01:00 +6°C° 0 mm 1 mps 746 mmHg 92%
    02:00 +6°C° 0 mm 1 mps 745 mmHg 93%
    03:00 +5°C° 0 mm 2 mps 745 mmHg 93%
    04:00 +4°C° 0 mm 2 mps 745 mmHg 94%
    05:00 +4°C° 0 mm 2 mps 745 mmHg 94%
    06:00 +4°C° 0 mm 2 mps 745 mmHg 95%
    07:00 +4°C° 0 mm 2 mps 745 mmHg 95%
    08:00 +4°C° 0 mm 2 mps 745 mmHg 95%
    09:00 +3°C° 0 mm 3 mps 745 mmHg 94%
    10:00 +4°C° 0 mm 3 mps 745 mmHg 93%
    11:00 +4°C° 0 mm 3 mps 746 mmHg 92%
    12:00 +4°C° 0 mm 3 mps 745 mmHg 91%
    13:00 +4°C° 0 mm 4 mps 745 mmHg 90%
    14:00 +5°C° 0 mm 4 mps 744 mmHg 89%
    15:00 +4°C° 0 mm 4 mps 744 mmHg 90%
    16:00 +4°C° 0 mm 4 mps 744 mmHg 91%
    17:00 +4°C° 0 mm 4 mps 744 mmHg 92%
    18:00 +4°C° 0 mm 4 mps 744 mmHg 92%
    19:00 +4°C° 0 mm 4 mps 744 mmHg 93%
    20:00 +4°C° 0 mm 4 mps 743 mmHg 93%
    21:00 +4°C° 0 mm 4 mps 743 mmHg 92%
    22:00 +4°C° 0 mm 4 mps 743 mmHg 92%
    23:00 +4°C° 0 mm 4 mps 743 mmHg 91%
    Show more